Barcelona, Spain

9:32 AM CEST en Junio 25, 2018 (GMT +0200)
El Prat

Tiempo Historia de LEBL - Enero, 2018

Change the Weather History Date:

Domingo, Enero 14, 2018

  Actual Average Record
Temperature  
Temperatura media 49 ° F -  
Temperatura máxima 54 ° F 54 ° F 62 ° F (2015)
Temperatura mínima 44 ° F 40 ° F 33 ° F (2003)
Degree Days  
Grados día de calefacción 16    
Moisture  
Punto de rocío 41 ° F    
Average Humidity 73    
Maximum Humidity 93    
Minimum Humidity 48    
Precipitación  
Precipitación 0.24 pul 0.05 pul - ()
Presión al nivel del mar  
Presión al nivel del mar 30.00 pul    
Viento  
Velocidad del viento 11 mph ()    
Velocidad máxima del viento 23 mph    
Max Gust Speed 26 mph    
Visibilidad 9.0 Millas    
Eventos Lluvia    
Averages and records for this station are not official NWS values.
T = Trace of Precipitation, MM = Missing Value Source: Averaged Metar Reports

Daily Weather History Graph

Daily Weather History Graph

Search for Another Location

Airport or City:

Astronomía

Jan. 14, 2018 Salida Puesta
Hora real 8:15 AM CET 5:46 PM CET
Crepúsculo civil 7:45 AM CET 6:16 PM CET
Crepúsculo náutico 7:11 AM CET 6:50 PM CET
Crepúsculo astronómico 6:37 AM CET 7:23 PM CET
Luna 5:57 AM CET (1/14) 3:52 PM CET (1/14)
Horas de luz 10h 31m
Horas de luz
9h 30m
Creciente menguante, 6% of the Moon is Illuminated
Ene 14
Creciente menguante
Ene 17
Nueva
Ene 24
Cuarto creciente
Ene 31
Luna llena
Feb 7
Cuarto menguante

Hourly Weather History & Observations

Hora (CET) Temp. Vientos helados Punto de rocío Humedad Presión Visibilidad Wind Dir Velocidad del viento Velocidad de ráfagas Precip Eventos Condiciones
12:00 AM 53.6 ° F - 44.6 ° F 72% 29.98 pul 6.2 mi SSO 19.6 mph - N/A Lluvia Lluvia débil
12:14 AM 51.8 ° F - 46.4 ° F 82% 29.98 pul 2.2 mi SO 12.7 mph - N/A Lluvia Lluvias fuertes
12:30 AM 51.8 ° F - 48.2 ° F 88% 29.98 pul 3.1 mi SSO 23.0 mph - N/A Lluvia Lluvia
12:46 AM 50.0 ° F - 46.4 ° F 87% 29.98 pul 1.9 mi Sur 17.3 mph - N/A Lluvia Lluvias fuertes
1:00 AM 52 ° F - 47 ° F 79% 29.99 pul 4 mi SO 18.4 mph - - Lluvia Lluvia
1:00 AM 51.8 ° F - 46.4 ° F 82% 29.98 pul 4.3 mi SSO 17.3 mph - N/A Lluvia Lluvia
1:06 AM 51.8 ° F - 48.2 ° F 88% 29.98 pul 5.6 mi SO 18.4 mph - N/A Lluvia Lluvia débil
1:30 AM 50.0 ° F - 46.4 ° F 87% 29.95 pul 6.2 mi SO 12.7 mph - N/A Lluvia Lluvia débil
2:00 AM 51 ° F - 46 ° F 79% 29.96 pul 12 mi NO 5.8 mph - - Lluvia Lluvia débil
2:00 AM 51.8 ° F - 46.4 ° F 82% 29.95 pul 6.2 mi OSO 6.9 mph - N/A Lluvia Lluvia débil
2:30 AM 48.2 ° F - 46.4 ° F 93% 29.95 pul 6.2 mi Norte 5.8 mph - N/A   Nubes dispersas
3:00 AM 49 ° F - 46 ° F 86% 29.96 pul 11 mi Norte 5.8 mph - -  
3:00 AM 48.2 ° F - 46.4 ° F 93% 29.95 pul 6.2 mi Variable 1.2 mph - N/A   Muy nublado
3:30 AM 48.2 ° F - 46.4 ° F 93% 29.95 pul 6.2 mi NO 3.5 mph - N/A Lluvia Lluvia débil
4:00 AM 48 ° F - 46 ° F 89% 29.95 pul 7 mi Norte 5.8 mph - - Lluvia Llovizna débil
4:00 AM 48.2 ° F - 46.4 ° F 93% 29.95 pul 6.2 mi NNO 6.9 mph - N/A   Llovizna débil
4:30 AM 46.4 ° F 41.5 ° F 44.6 ° F 93% 29.92 pul 6.2 mi NNO 10.4 mph - N/A   Nubes dispersas
5:00 AM 47 ° F - 44 ° F 83% 29.94 pul 14 mi NNO 6.9 mph - -   Despejado
5:00 AM 46.4 ° F 41.1 ° F 42.8 ° F 87% 29.92 pul 6.2 mi NO 11.5 mph - N/A   Parcialmente nublado
5:30 AM 46.4 ° F 41.5 ° F 42.8 ° F 87% 29.92 pul 6.2 mi NO 10.4 mph - N/A   Parcialmente nublado
6:00 AM 48 ° F - 43 ° F 75% 29.95 pul 15 mi NNO 8.1 mph - -  
6:00 AM 46.4 ° F 41.5 ° F 41.0 ° F 81% 29.95 pul 6.2 mi NO 10.4 mph - N/A   Nubes dispersas
6:30 AM 48.2 ° F - 41.0 ° F 76% 29.95 pul 6.2 mi NO 9.2 mph - N/A   Nubes dispersas
7:00 AM 47 ° F - 41 ° F 73% 29.95 pul 12 mi Norte 8.1 mph - -   Parcialmente nublado
7:00 AM 46.4 ° F 41.5 ° F 41.0 ° F 81% 29.95 pul 6.2 mi NO 10.4 mph - N/A   Parcialmente nublado
7:30 AM 44.6 ° F 39.2 ° F 39.2 ° F 81% 29.95 pul 6.2 mi ONO 10.4 mph - N/A   Parcialmente nublado
8:00 AM 46 ° F - 39 ° F 69% 29.96 pul 19 mi NO 6.9 mph - -  
8:00 AM 44.6 ° F 40.7 ° F 39.2 ° F 81% 29.95 pul 6.2 mi ONO 6.9 mph - N/A   Parcialmente nublado
8:30 AM 44.6 ° F 39.7 ° F 39.2 ° F 81% 29.95 pul 6.2 mi NO 9.2 mph 21.9 mph N/A   Parcialmente nublado
9:00 AM 46 ° F - 39 ° F 69% 29.98 pul 19 mi ONO 8.1 mph - -  
9:00 AM 44.6 ° F 40.2 ° F 39.2 ° F 81% 29.98 pul 6.2 mi ONO 8.1 mph - N/A   Parcialmente nublado
9:30 AM 46.4 ° F 42.9 ° F 39.2 ° F 76% 29.98 pul 6.2 mi ONO 6.9 mph - N/A   Parcialmente nublado
10:00 AM 48 ° F - 39 ° F 63% 30.00 pul 16 mi NO 8.1 mph - -   Nubes dispersas
10:00 AM 46.4 ° F 42.9 ° F 39.2 ° F 76% 29.98 pul 6.2 mi ONO 6.9 mph - N/A   Parcialmente nublado
10:30 AM 48.2 ° F - 39.2 ° F 71% 29.98 pul 6.2 mi ONO 10.4 mph - N/A   Parcialmente nublado
11:00 AM 50 ° F - 40 ° F 60% 30.01 pul 19 mi NNO 9.2 mph - -  
11:00 AM 48.2 ° F - 39.2 ° F 71% 30.01 pul 6.2 mi ONO 10.4 mph - N/A   Parcialmente nublado
11:30 AM 50.0 ° F - 39.2 ° F 66% 30.01 pul 6.2 mi NO 10.4 mph - N/A   Parcialmente nublado
12:00 PM 51 ° F - 41 ° F 59% 30.01 pul 19 mi NO 12.7 mph - -  
12:00 PM 50.0 ° F - 41.0 ° F 71% 30.01 pul 6.2 mi NO 13.8 mph 26.5 mph N/A   Parcialmente nublado
12:30 PM 51.8 ° F - 41.0 ° F 67% 29.98 pul 6.2 mi NO 13.8 mph - N/A   Parcialmente nublado
1:00 PM 52 ° F - 40 ° F 54% 30.00 pul 16 mi NO 12.7 mph - -   Nubes dispersas
1:00 PM 50.0 ° F - 39.2 ° F 66% 29.98 pul 6.2 mi NO 12.7 mph - N/A   Parcialmente nublado
1:30 PM 51.8 ° F - 41.0 ° F 67% 29.98 pul 6.2 mi ONO 11.5 mph - N/A   Parcialmente nublado
2:00 PM 54 ° F - 41 ° F 50% 29.99 pul 19 mi NO 11.5 mph - -  
2:00 PM 51.8 ° F - 41.0 ° F 67% 29.98 pul 6.2 mi NO 12.7 mph - N/A   Parcialmente nublado
2:30 PM 51.8 ° F - 39.2 ° F 62% 29.98 pul 6.2 mi NO 11.5 mph - N/A   Parcialmente nublado
3:00 PM 54 ° F - 40 ° F 48% 29.99 pul 19 mi NO 10.4 mph - -  
3:00 PM 53.6 ° F - 39.2 ° F 58% 29.98 pul 6.2 mi NO 10.4 mph - N/A   Parcialmente nublado
3:30 PM 51.8 ° F - 39.2 ° F 62% 29.98 pul 6.2 mi NO 12.7 mph 25.3 mph N/A   Parcialmente nublado
4:00 PM 53 ° F - 40 ° F 50% 30.01 pul 19 mi NNO 9.2 mph - -   Nubes dispersas
4:00 PM 51.8 ° F - 39.2 ° F 62% 30.01 pul 6.2 mi ONO 10.4 mph - N/A   Parcialmente nublado
4:30 PM 51.8 ° F - 39.2 ° F 62% 30.01 pul 6.2 mi NO 10.4 mph 25.3 mph N/A   Parcialmente nublado
5:00 PM 52 ° F - 39 ° F 51% 30.02 pul 19 mi ONO 9.2 mph - -  
5:00 PM 51.8 ° F - 39.2 ° F 62% 30.01 pul 6.2 mi ONO 9.2 mph - N/A   Parcialmente nublado
5:30 PM 50.0 ° F - 39.2 ° F 66% 30.04 pul 6.2 mi ONO 9.2 mph - N/A   Parcialmente nublado
6:00 PM 49 ° F - 38 ° F 57% 30.05 pul 19 mi NNO 6.9 mph - -  
6:00 PM 48.2 ° F - 37.4 ° F 66% 30.04 pul 6.2 mi NO 8.1 mph - N/A   Parcialmente nublado
6:30 PM 48.2 ° F - 37.4 ° F 66% 30.04 pul 6.2 mi NO 9.2 mph - N/A   Parcialmente nublado
7:00 PM 47 ° F - 39 ° F 64% 30.06 pul 19 mi ONO 5.8 mph - -   Nubes dispersas
7:00 PM 46.4 ° F 41.9 ° F 37.4 ° F 71% 30.04 pul 6.2 mi NO 9.2 mph - N/A   Parcialmente nublado
7:30 PM 46.4 ° F 42.4 ° F 37.4 ° F 71% 30.06 pul - NO 8.1 mph - N/A   Despejado
8:00 PM 47 ° F - 38 ° F 63% 30.10 pul 19 mi ONO 6.9 mph - -  
8:00 PM 46.4 ° F 42.4 ° F 39.2 ° F 76% 30.09 pul 6.2 mi NO 8.1 mph - N/A   Parcialmente nublado
8:30 PM 46.4 ° F 42.4 ° F 37.4 ° F 71% 30.09 pul 6.2 mi NO 8.1 mph - N/A   Parcialmente nublado
9:00 PM 46 ° F - 38 ° F 67% 30.12 pul 19 mi Norte 8.1 mph - -  
9:00 PM 46.4 ° F 42.4 ° F 37.4 ° F 71% 30.09 pul 6.2 mi NO 8.1 mph - N/A   Parcialmente nublado
9:30 PM 44.6 ° F 39.2 ° F 37.4 ° F 76% 30.09 pul 6.2 mi NNO 10.4 mph - N/A   Parcialmente nublado
10:00 PM 44.6 ° F 38.8 ° F 37.4 ° F 76% 30.12 pul 6.2 mi NNO 11.5 mph - N/A   Parcialmente nublado
10:30 PM 44.6 ° F 39.2 ° F 37.4 ° F 76% 30.12 pul 6.2 mi NO 10.4 mph 23.0 mph N/A   Parcialmente nublado
11:00 PM 45 ° F - 38 ° F 68% 30.14 pul 19 mi Norte 9.2 mph - -  
11:00 PM 44.6 ° F 38.8 ° F 37.4 ° F 76% 30.12 pul 6.2 mi NNO 11.5 mph - N/A   Parcialmente nublado
11:30 PM 44.6 ° F 38.4 ° F 37.4 ° F 76% 30.12 pul 6.2 mi NNO 12.7 mph - N/A   Parcialmente nublado